KE6AFE Weather Reports


Display with metric or nautical units.
time (UTC)temp
F
wind
direction
speed
MPH
gust
MPH
rain 1hr
in
rain 24hr
in
rain mn
in
humidity
%
barometer
mb
20260504034528 58 2 0.0 0.0 0.00 0.01 0.01 65 1015.0
20260504033518 58 1 0.0 0.0 0.00 0.01 0.01 64 1014.9
20260504032508 58 1 0.0 0.0 0.00 0.01 0.01 64 1014.8
20260504031458 58 1 0.0 0.0 0.00 0.01 0.01 64 1014.9
20260504030448 59 1 0.0 0.0 0.00 0.01 0.01 62 1014.8
20260504025438 59 1 0.0 0.0 0.00 0.01 0.01 61 1014.6
20260504024428 60 1 0.0 0.0 0.00 0.01 0.01 60 1014.5
20260504023418 60 1 0.0 0.0 0.00 0.01 0.01 59 1014.5
20260504022408 61 1 0.0 0.0 0.00 0.01 0.01 57 1014.4
20260504021358 61 2 0.0 0.0 0.00 0.01 0.01 58 1014.4
20260504020348 61 2 0.0 0.0 0.00 0.01 0.01 58 1014.6
20260504015338 62 1 0.0 0.0 0.00 0.01 0.01 57 1014.7
20260504014328 62 1 0.0 0.0 0.00 0.01 0.01 57 1014.7
20260504013318 63 2 0.0 0.0 0.00 0.01 0.01 55 1014.7
20260504012308 63 1 0.0 0.0 0.00 0.01 0.01 53 1014.6
20260504011258 64 1 0.0 0.0 0.00 0.01 0.01 54 1014.7
20260504010248 64 2 0.0 0.0 0.00 0.01 0.01 53 1014.6
20260504005238 65 1 0.0 0.0 0.00 0.01 0.01 53 1014.6
20260504004228 65 1 0.0 0.0 0.00 0.01 0.01 51 1014.6
20260504003218 66 1 0.0 0.0 0.00 0.01 0.01 50 1014.5
20260504002208 66 1 0.0 0.0 0.00 0.01 0.01 50 1014.5
20260504001158 66 1 0.0 0.0 0.00 0.01 0.01 50 1014.5
20260504000148 67 1 0.0 0.0 0.00 0.01 0.01 49 1014.4
20260503235138 68 1 0.0 0.0 0.00 0.01 0.01 48 1014.4
20260503234128 68 1 0.0 0.0 0.00 0.01 0.01 48 1014.4
20260503233118 68 1 0.0 0.0 0.00 0.01 0.01 47 1014.3
20260503232108 68 1 0.0 0.0 0.00 0.01 0.01 48 1014.3
20260503231058 68 1 0.0 0.0 0.00 0.01 0.01 49 1014.3
20260503230048 68 1 0.0 0.0 0.00 0.01 0.01 49 1014.4
20260503225038 68 1 0.0 0.0 0.00 0.01 0.01 49 1014.5
20260503224028 68 1 0.0 0.0 0.00 0.01 0.01 47 1014.6
20260503223018 69 1 0.0 0.0 0.00 0.01 0.01 47 1014.6
20260503222008 69 1 0.0 0.0 0.00 0.01 0.01 44 1014.6
20260503220958 69 1 0.0 0.0 0.00 0.01 0.01 46 1014.7
20260503215948 68 1 0.0 0.0 0.00 0.01 0.01 48 1014.6
20260503214938 67 1 0.0 0.0 0.00 0.01 0.01 49 1014.6
20260503213928 67 0 0.0 0.0 0.00 0.01 0.01 51 1014.6
20260503212918 66 1 0.0 0.0 0.00 0.01 0.01 50 1014.5
20260503211908 66 1 0.0 0.0 0.00 0.01 0.01 52 1014.5
20260503210858 66 1 0.0 0.0 0.00 0.01 0.01 53 1014.5
20260503205848 66 1 0.0 0.0 0.00 0.01 0.01 52 1014.4
20260503204838 66 1 0.0 0.0 0.00 0.01 0.01 52 1014.5
20260503203828 66 1 0.0 0.0 0.00 0.01 0.01 55 1014.6
20260503202818 66 1 0.0 0.0 0.00 0.01 0.01 57 1014.6
20260503201808 65 1 0.0 0.0 0.00 0.01 0.01 58 1014.7
20260503200758 65 1 0.0 0.0 0.00 0.01 0.01 61 1014.7
20260503195748 65 1 0.0 0.0 0.00 0.01 0.01 62 1014.7
20260503194738 65 1 0.0 0.0 0.00 0.01 0.01 62 1014.8
20260503193728 65 1 0.0 0.0 0.00 0.01 0.01 62 1014.7
20260503192718 65 1 0.0 0.0 0.00 0.01 0.01 62 1014.6
20260503191708 65 1 0.0 0.0 0.00 0.01 0.01 62 1014.7
20260503190658 65 1 0.0 0.0 0.00 0.01 0.01 61 1014.6
20260503185648 65 0 0.0 0.0 0.00 0.01 0.01 61 1014.5
20260503184638 65 1 0.0 0.0 0.00 0.01 0.01 62 1014.5
20260503183628 64 1 0.0 0.0 0.00 0.01 0.01 61 1014.4
20260503182618 64 1 0.0 0.0 0.00 0.01 0.01 59 1014.2
20260503181608 64 1 0.0 0.0 0.00 0.01 0.01 62 1014.2
20260503180558 63 1 0.0 0.0 0.00 0.01 0.01 62 1014.1
20260503175548 62 1 0.0 0.0 0.00 0.01 0.01 63 1014.2
20260503174538 62 1 0.0 0.0 0.00 0.01 0.01 65 1014.3
20260503173528 62 1 0.0 0.0 0.00 0.01 0.01 65 1014.2
20260503172518 62 1 0.0 0.0 0.00 0.01 0.01 65 1014.1
20260503171508 61 0 0.0 0.0 0.00 0.01 0.01 64 1014.0
20260503170458 61 1 0.0 0.0 0.00 0.01 0.01 63 1014.0
20260503150258 56 1 0.0 0.0 0.00 0.00 0.00 78 1013.5
20260503140158 55 3 0.0 0.0 0.00 0.00 0.00 75 1012.5
20260503131108 55 2 0.0 0.0 0.00 0.00 0.00 74 1012.2
20260503081618 57 2 0.0 0.0 0.00 0.00 0.00 68 1012.6
20260503080608 57 2 0.0 0.0 0.00 0.00 0.00 67 1012.6
20260503072528 57 3 0.0 0.0 0.00 0.00 0.00 66 1012.6
20260503071518 57 2 0.0 0.0 0.00 0.00 0.00 66 1012.6
20260503070508 58 3 0.0 0.0 0.00 0.00 0.00 66 1012.6
20260503054346 59 3 0.0 0.0 0.00 0.00 0.00 64 1012.9
20260503053336 59 2 0.0 0.0 0.00 0.00 0.00 64 1013.0
20260503052326 59 3 0.0 0.0 0.00 0.00 0.00 64 1013.0
20260503051316 59 2 0.0 0.0 0.00 0.00 0.00 64 1013.0
20260503050306 60 3 0.0 0.0 0.00 0.00 0.00 65 1013.0
20260503045256 60 0 0.0 0.0 0.00 0.00 0.00 65 1013.0
20260503044246 60 0 0.0 0.0 0.00 0.00 0.00 65 1012.9
20260503043236 60 0 0.0 0.0 0.00 0.00 0.00 65 1012.8
20260503042226 60 0 0.0 0.0 0.00 0.00 0.00 65 1012.7
20260503041216 60 2 0.0 0.0 0.00 0.00 0.00 65 1012.6
20260503040206 60 3 0.0 0.0 0.00 0.00 0.00 64 1012.4
20260503035156 60 3 0.0 0.0 0.00 0.00 0.00 64 1012.3